DELTA 1 DEB, 7038

Orbit data source: Space-Track

DELTA 1 DEB, 7038 is space debris in SSO originally from a launch on Tue, 06 Nov 1973 UTC launched from the Air Force Western Test Range (AFWTR). Debris objects in space refer to the collection of defunct objects orbiting the Earth. Examples of debris include non-operational satellites, rocket bodies, and fragments generated from explosions, collisions, or faulty payload assembly.

Loading next visibility...
Identifier
7038, 1973-086AE
Orbit
SSO
Country
Flag of USUS
Related business
Manufacturer
Unknown
Mission
Spacecraft
Bus & Motor
Unknown
Mass
Unknown
Launch date (UTC)
1973-11-06 (52 years ago)
Launch vehicle
Unknown
Launch site
Air Force Western Test Range (AFWTR)
Object type
Payload
Rocket body
Debris
Shape & HBR
Unknown shape, 0.2 m
Radar Cross Section
Medium (>0.1 m² and <1 m²)

Expand to show TLE details & history
Last TLE update: 9 hours ago

TLE from 9 hours ago
0 DELTA 1 DEB
1  7038U 73086AE  25302.48396471  .00000086  00000-0  11436-2 0  9997
2  7038 101.8939 134.3912 0127560 202.1573 216.4391 12.24389327318273
Epoch: 2025-10-29T11:36Z
TLE epoch observation values (Epoch: 2025-10-29T11:36:54.550Z)
Latitude
55.93179°
Longitude
-95.94978°
Altitude
1,664.639 km
Speed
7.01 km/s
True Right ascension
07h 45m 20s
True Declination
55° 47' 24"
Sunlit
Object was in daylight at epoch
Visualization orbit readout
Latitude
Unknown
Longitude
Unknown
Altitude
Unknown
Speed
Unknown
Apparent Right ascension
Unknown
Apparent Declination
Unknown
Sunlit
N/A
Visualization observer readout
Local Sidereal Time
15:50:30
Azimuth
Unknown
Elevation
Unknown
Doppler factor
Unknown
Orbital elements
Apogee altitude
1,672.469 km
Perigee altitude
1,469.669 km
Semi-major axis
7,949.206 km
Eccentricity
0.01276
Inclination
101.8939°
RAAN
134.3912°
Arg. of periapsis
202.1573°
True anomaly
215.58191°
Mean anomaly
216.4391°
Eccentric anomaly
216.00941°
Mean motion
3.06237 °/min
Orbital period
117.56 mins
BSTAR
0.0011436
Loading maneuver chart data...
Computing Atmospheric mass density...
Loading historical data...
Loading historical data...
Loading historical data...
Loading historical data...
Loading historical data...
Loading historical data...
Loading historical data...

Documentation

Showing up to 5 results
|